ファン・ネス彗星

P/2005 R2 ( Van Ness ) 2011

English version
Home page
Total 6,336 html files since Dec. 4, 1995
Updated on October 15, 2008

---------------------------------------------------------------------

・ プロフィール

・ 軌道要素

The following orbital elements are taken from MPC 62880:

Epoch 2011 June 8.0 TT = JDT 2455720.5
T 2011 June 16.2935 TT                                  MPC
q   2.122511             (2000.0)            P               Q
n   0.1557480      Peri.    3.3325      +0.7187174      +0.6829075
a   3.421272       Node   312.6723      -0.6419674      +0.5795559
e   0.379613       Incl.   10.2396      -0.2670639      +0.4446935
P   6.33
From 847 observations 2005 Aug. 4-2007 Jan. 27, mean residual 0".5.

・ 星図

・ 光度変化

        m1 = 7.5 + 5 logΔ + 15 log r

---------------------------------------------------------------------

軌道要素はMPCのEphemerides and Orbital Elementsに掲載されたものです。
星図はステラナビゲータ Ver.8 (アストロアーツ) で作成したものです。
光度グラフはComet for Windowsで作成したものです。

---------------------------------------------------------------------

Copyright(C) 1995-2008 Seiichi Yoshida (comet@aerith.net). All rights reserved.